Regional Weather Roundup
Issued by NWS

Home | Current Version | Previous Version | Text Only | Print | Product List | Glossary On
Versions: 1 2 3 4 5 6 7 8 9 10 11 12 13 14 15 16 17 18 19 20 21 22 23 24 25 26 27 28 29 30 31 32 33 34 35 36 37 38 39 40 41 42 43 44 45 46 47 48 49 50
000
ASUS45 KBOU 220607
RWRCO

WEATHER ROUNDUP FOR COLORADO
NATIONAL WEATHER SERVICE DENVER/BOULDER CO
1200 AM MDT TUE JUL 22 2014

NOTE: "FAIR" INDICATES FEW OR NO CLOUDS BELOW 12000 FEET WITH NO
SIGNIFICANT WEATHER AND/OR OBSTRUCTIONS TO VISIBILITY.

COZ001>005-013-030-031-220700-
...NORTHWEST COLORADO...

CITY           SKY/WX    TMP DP  RH WIND       PRES   REMARKS
CRAIG          CLEAR     52  43  71 CALM      30.28R
HAYDEN         CLEAR     63  36  36 E9        30.30R
MEEKER         CLEAR     61  32  33 VRB5      30.29R
MOUNT WERNER   NOT AVBL
STEAMBOAT SPGS CLEAR     58  39  47 CALM      30.34R
WALDEN         CLEAR     50  34  53 SE8       30.43S
$$

COZ006>008-011-220700-
...WEST CENTRAL VALLEYS...

CITY           SKY/WX    TMP DP  RH WIND       PRES   REMARKS
GRAND JUNCTION CLEAR     72  18  13 E5        30.15R
MONTROSE       CLEAR     72  33  24 SE13      30.27R
EAGLE          CLEAR     63  41  45 CALM      30.34R
RIFLE          CLEAR     69  35  28 SE3       30.22R
DELTA          CLEAR     73  32  22 NE8       30.20R
NUCLA          CLEAR     70  28  21 E9        30.31S
$$

COZ017>023-064>068-220700-
...SOUTHWEST COLORADO...

CITY           SKY/WX    TMP DP  RH WIND       PRES   REMARKS
DURANGO        CLEAR     68  34  28 NE3       30.32R
CORTEZ         CLEAR     60  35  39 NE7       30.27R
PAGOSA SPRINGS CLEAR     63  41  45 CALM      30.43R
TELLURIDE      CLEAR     61  32  33 SE7       30.55S
WOLF CREEK PAS NOT AVBL
$$

COZ009-010-012-014-032>034-037-058>063-220700-
...CENTRAL COLORADO...

CITY           SKY/WX    TMP DP  RH WIND       PRES   REMARKS
ASPEN          CLEAR     58  35  42 S8        30.42R
BUENA VISTA    CLEAR     55  37  50 CALM      30.46R
COPPER MTN     CLEAR     59  28  31 W12       30.79R
BERTHOUD PASS  FAIR      50  36  57 NW7       30.83S
COTTONWOOD PAS CLEAR     66  21  18 W12       30.61R
GUNNISON       CLEAR     57  37  47 N3        30.47R
KREMMLING      CLEAR     55  37  50 CALM      30.41R
LEADVILLE      CLEAR     49  31  49 CALM      30.60R
MONARCH PASS   CLEAR     54  28  37 NW5       30.90R
SALIDA         CLEAR    N/A N/A N/A W6        30.50R
SUNLIGHT       CLEAR     59  27  29 CALM      30.68S
WILKERSON PASS CLEAR     59  30  33 CALM      30.76R
$$

COZ069>075-220700-
...SAN LUIS VALLEY/SANGRE DE CRISTO MOUNTAINS...

CITY           SKY/WX    TMP DP  RH WIND       PRES   REMARKS
ALAMOSA        CLEAR     54  49  83 NE5       30.43R
LA VETA PASS   MOCLDY    59  37  44 SW3       30.63R
SAGUACHE       CLEAR     54  45  71 N6        30.47R
$$

COZ035-036-038>040-220700-
...NORTHERN COLORADO FRONT RANGE...

CITY           SKY/WX    TMP DP  RH WIND       PRES   REMARKS
DENVER INTL AP PTCLDY    72  46  39 SW8       30.19R
DMNS CITY PARK   N/A     71  49  45 S5        30.20R
AURORA         PTCLDY    70  46  42 SW8       30.22R
FRONT RANGE AP NOT AVBL
ERIE MUNI ARPT CLEAR     65  51  59 CALM      30.18R
BOULDER MUN AP CLEAR     73  43  33 NE7       30.19R
CENTENNIAL     CLEAR     71  42  35 SW7       30.24R
BROOMFIELD     CLEAR     77  37  24 NW8       30.22R
FORT COLLINS   CLEAR     72  46  40 CALM      30.18R
LONGMONT       CLEAR     72  47  41 CALM      30.19R
$$

COZ041-046-047-076>085-087-088-220700-
...PIKES PEAK/PALMER DIVIDE AND SOUTHERN FOOTHILLS...

CITY           SKY/WX    TMP DP  RH WIND       PRES   REMARKS
COLO. SPRINGS  PTCLDY    66  50  56 NW6       30.28R
A. F. ACADEMY  PTCLDY    60  48  64 N8        30.31R
ELLICOTT       CLEAR     67  49  52 SE8       30.27R
FALCON         CLEAR     62  48  61 CALM      30.34S
FORT CARSON    PTCLDY    69  47  45 NW7       30.25R
LIMON          CLEAR     60  48  64 NW5       30.21S
MONUMENT HILL  CLEAR     61  43  51 SW8       30.34R
TRINIDAD       CLOUDY    70  53  54 W13       30.24F
$$

COZ042>045-048>051-090-091-220700-
...NORTHEAST COLORADO...

CITY           SKY/WX    TMP DP  RH WIND       PRES   REMARKS
GREELEY ARPT   PTCLDY    70  48  46 NE5       30.14S
AKRON          PTCLDY    78  52  40 S10       30.13R
BURLINGTON     CLEAR     72  60  66 S15       30.14R
WRAY             N/A     77  60  55 S15G25    30.08R
STERLING       LGT RAIN  86  54  32 S20G30    30.08S
HOLYOKE        CLEAR     73  63  68 S3        30.09S
FORT MORGAN    PTCLDY    76  48  36 N14       30.15R
$$

COZ086-089-092>099-220700-
...SOUTHEAST COLORADO...

CITY           SKY/WX    TMP DP  RH WIND       PRES   REMARKS
PUEBLO         MOCLDY    71  54  54 W3        30.15R
LA JUNTA       CLOUDY    78  57  48 SE13      30.13S
LAMAR          CLOUDY    77  59  53 S23G30    30.11R
SPRINGFIELD      N/A     68  61  78 SE13      30.23R
$$



USA.gov is the U.S. government's official web portal to all federal, state and local government web resources and services.